Regional Weather Roundup
Issued by NWS

Home | Current Version | Previous Version | Graphics & Text | Print | Product List | Glossary On
Versions: 1 2 3 4 5 6 7 8 9 10 11 12 13 14 15 16 17 18 19 20 21 22 23 24 25 26 27 28 29 30 31 32 33 34 35 36 37 38 39 40 41 42 43 44 45 46 47 48 49 50
000
ASUS43 KLOT 181600
RWRIL

ILLINOIS REGIONAL WEATHER ROUNDUP
NATIONAL WEATHER SERVICE CHICAGO/ROMEOVILLE IL
1100 AM CDT THU SEP 18 2014

NOTE: "FAIR" INDICATES FEW OR NO CLOUDS BELOW 12,000 FEET WITH NO
SIGNIFICANT WEATHER AND/OR OBSTRUCTIONS TO VISIBILITY.

* THESE STATIONS ARE NOT UNDER NWS QUALITY CONTROL. THEY ALSO MAY NOT
  REPORT WEATHER SUCH AS PRECIPITATION OR FOG.

ILZ001-002-007-009-015-016-024-181700-
NORTHWEST ILLINOIS

CITY           SKY/WX    TMP DP  RH WIND       PRES   REMARKS
MOLINE         SUNNY     67  53  61 E8        30.12F
STERLING*      SUNNY     68  54  60 E9        30.14S
$$

ILZ003-004-008-010-011-017-018-181700-
NORTH CENTRAL ILLINOIS

CITY           SKY/WX    TMP DP  RH WIND       PRES   REMARKS
ROCKFORD       CLOUDY    57  52  83 E8        30.20S
FREEPORT*      SUNNY     57  53  86 NE8       30.19S
ROCHELLE*      SUNNY     61  52  72 NE8       30.16S
$$

ILZ005-006-012>014-019>023-181700-
NORTHEAST ILLINOIS

CITY           SKY/WX    TMP DP  RH WIND       PRES   REMARKS
CHICAGO-OHARE  PTSUNNY   67  55  65 NE9       30.15S
CHICAGO-MIDWAY MOSUNNY   68  54  60 VRB3      30.15S
AURORA           N/A     62  55  77 MISG      30.16F
LANSING*       SUNNY     65  49  55 E6        30.15S
WAUKEGAN       CLOUDY    59  53  80 NE7       30.17R
DUPAGE AIRPORT PTSUNNY   64  55  72 NE6       30.15F
WHEELING       CLOUDY    64  54  69 E6        30.18R
NORTHERLY ISL    N/A     63  57  81 NE7         N/A
$$

LMZ740>746-181700-
SOUTHERN LAKE MICHIGAN

STATION/POSITION SKY/WX   TEMP    WIND        PRES    VSBY  WAVE
                          AIR SEA DIR/SP/G                  HT/PER
                          (F)     (DEG/KT/KT) (MB)    (MI)  (FT/S)
SOUTHERN BUOY              62 63   CALM  /  2 1021.0R         3/ 6
WAUKEGAN HARBOR            59      20/ 10/ 11   N/A
HARRISON CRIB              61      20/  6/  6   N/A
BURNHAM HARBOR             63      30/  6/  7   N/A
CALUMET HARBOR             63     360/  3/  7 1019.7S
MICHIGAN CITY              60      70/  6/  8   N/A
MICHIGAN CITY 6N           62 65  140/  2/  4   N/A           1
ST. JOSEPH                 61 66  200/  4/  6   N/A           1
$$

ILZ025>027-034>036-040-047-049-050-058-095>099-181700-
WEST-CENTRAL ILLINOIS

CITY           SKY/WX    TMP DP  RH WIND       PRES   REMARKS
QUINCY         SUNNY     65  53  65 E8        30.10R
GALESBURG*     SUNNY     71  57  61 E6        30.12S
MACOMB*        SUNNY     69  53  57 SE7       30.13S
$$

ILZ028>032-037-038-041>044-048-051>054-059>061-181700-
CENTRAL ILLINOIS

CITY           SKY/WX    TMP DP  RH WIND       PRES   REMARKS
DECATUR        SUNNY     69  50  50 E13       30.11S
PEORIA         SUNNY     69  54  58 E9        30.12S
SPRINGFIELD    SUNNY     69  55  60 E9        30.11S
TAYLORVILLE    NOT AVBL
$$

ILZ033-039-045-046-055>057-062-063-181700-
EAST-CENTRAL ILLINOIS

CITY           SKY/WX    TMP DP  RH WIND       PRES   REMARKS
CHAMPAIGN      SUNNY     68  50  52 E9        30.12S
MATTOON        MOSUNNY   68  50  52 E9        30.10S
$$

ILZ079-100>102-181700-
SOUTHWEST ILLINOIS

CITY           SKY/WX    TMP DP  RH WIND       PRES   REMARKS
ALTON          PTSUNNY   64  54  68 E9        30.09S
CAHOKIA*       CLOUDY    67  56  67 E8        30.08S
SPARTA*        CLOUDY    67  55  66 NE7       30.08S
$$

ILZ064>066-069>071-074>076-080>082-084>086-088>090-092>094-181700-
SOUTH-CENTRAL ILLINOIS

CITY           SKY/WX    TMP DP  RH WIND       PRES   REMARKS
CARBONDALE     CLOUDY    67  57  70 E6        30.06S
MARION         PTSUNNY   70  57  64 NE6       30.06S
MT. VERNON     PTSUNNY   66  55  68 E7        30.09S
SALEM*         PTSUNNY   68  55  64 E8        30.09S
$$

ILZ067-068-072-073-078-083-087-091-181700-
SOUTHEAST ILLINOIS

CITY           SKY/WX    TMP DP  RH WIND       PRES   REMARKS
LAWRENCEVILLE  SUNNY     69  53  56 E10       30.09S
ROBINSON*      SUNNY     69  57  64 NE6       30.10S
$$

ABBREVIATIONS USED IN REMARKS
   TC - TEMPERATURE IN CELSIUS
  WCI - WIND CHILL INDEX
   HX - HEAT INDEX
  VSB - VISIBILITY
$$




USA.gov is the U.S. government's official web portal to all federal, state and local government web resources and services.